Вернуться в каталог

CZ-6A DEB

АктивенPO
NORAD 54598·DEBRIS·🇨🇳 China

Запущен Nov 11, 2022 с Taiyuan Satellite Launch Center

Loading…

Ближайшие Пролёты (ближайшие 24 часа)

TLE

СвежийSource: Space-Track

Эпоха: Sep 14, 2026, 08:18 UTC

1 54598U 22151MY  26257.34609703  .00018452  00000-0  17325-2 0  9996
2 54598  98.9035  28.8915 0036067 312.9370  46.8822 14.93529198203980

Отслеживайте CZ-6A DEB в реальном времени с AllMySat

Download on the App Store